SWA1873 KMCO-TNCM

Flight info

Callsign SWA1873
Flight time 2h 32m
Altitude 37000
Route DDANY3 JIPOD DCT VENDS Y185 COUKY DCT FIPEK Y355 SLUGO
Aircraft B738/M-SDE2E3FGHIRWXY/LB1

Departure

Time 2026-04-23 17:47
Airport Orlando International Airport (KMCO)

Arrival

Time 2026-04-23 20:19
Airport Princess Juliana International Airport (TNCM)
Time Latitude Longitude Altitude Speed Heading
2026-04-23 17:26 28.43473 -81.30019 94 ft 0 kts 269°
2026-04-23 17:39 28.43473 -81.29999 94 ft 4 kts 269°
2026-04-23 17:39 28.43473 -81.29970 94 ft 2 kts 269°
2026-04-23 17:39 28.43472 -81.29945 94 ft 4 kts 294°
2026-04-23 17:40 28.43457 -81.29928 93 ft 2 kts 347°
2026-04-23 17:40 28.43437 -81.29923 94 ft 0 kts 347°
2026-04-23 17:43 28.43439 -81.29923 93 ft 1 kts 347°
2026-04-23 17:43 28.43454 -81.29920 92 ft 4 kts 26°
2026-04-23 17:43 28.43489 -81.29898 94 ft 7 kts 29°
2026-04-23 17:44 28.43543 -81.29875 94 ft 9 kts 44°
2026-04-23 17:44 28.43548 -81.29807 94 ft 8 kts 89°
2026-04-23 17:44 28.43550 -81.29684 96 ft 8 kts 89°
2026-04-23 17:45 28.43550 -81.29628 98 ft 7 kts 89°
2026-04-23 17:45 28.43499 -81.29586 96 ft 5 kts 185°
2026-04-23 17:45 28.43492 -81.29586 97 ft 0 kts 181°
2026-04-23 17:46 28.43401 -81.29586 97 ft 42 kts 179°
2026-04-23 17:47 28.42868 -81.29580 99 ft 109 kts 179°
2026-04-23 17:47 28.41906 -81.29547 108 ft 163 kts 175°
2026-04-23 17:47 28.39586 -81.29580 1384 ft 177 kts 176°
2026-04-23 17:48 28.38282 -81.29415 1716 ft 199 kts 158°
2026-04-23 17:48 28.37081 -81.28619 2247 ft 203 kts 141°
2026-04-23 17:48 28.35916 -81.27636 2606 ft 218 kts 144°
2026-04-23 17:48 28.34590 -81.26590 2772 ft 245 kts 141°
2026-04-23 17:49 28.33298 -81.25215 3220 ft 260 kts 132°
2026-04-23 17:49 28.32109 -81.23731 4222 ft 253 kts 129°
2026-04-23 17:49 28.31278 -81.21962 4873 ft 260 kts 100°
2026-04-23 17:49 28.31087 -81.19933 5765 ft 255 kts 96°
2026-04-23 17:50 28.30930 -81.17888 6339 ft 267 kts 96°
2026-04-23 17:50 28.30573 -81.13629 7805 ft 273 kts 96°
2026-04-23 17:50 28.30378 -81.11451 8486 ft 280 kts 96°
2026-04-23 17:51 28.30173 -81.09225 9178 ft 286 kts 97°
2026-04-23 17:51 28.29962 -81.06968 9866 ft 290 kts 97°
2026-04-23 17:51 28.29505 -81.02189 10501 ft 325 kts 97°
2026-04-23 17:52 28.29257 -80.99617 10926 ft 335 kts 97°
2026-04-23 17:52 28.28739 -80.94246 12050 ft 349 kts 96°
2026-04-23 17:52 28.28469 -80.91469 12581 ft 357 kts 96°
2026-04-23 17:53 28.27818 -80.85916 14270 ft 358 kts 105°
2026-04-23 17:53 28.26988 -80.83225 14854 ft 363 kts 113°
2026-04-23 17:53 28.26000 -80.80555 15422 ft 370 kts 114°
2026-04-23 17:54 28.24993 -80.77857 16041 ft 374 kts 114°
2026-04-23 17:54 28.23983 -80.75116 16694 ft 378 kts 113°
2026-04-23 17:54 28.21977 -80.69569 17910 ft 387 kts 113°
2026-04-23 17:55 28.19970 -80.63823 19062 ft 396 kts 111°
2026-04-23 17:55 28.19002 -80.60878 19584 ft 400 kts 111°
2026-04-23 17:55 28.18035 -80.57908 20110 ft 404 kts 111°
2026-04-23 17:56 28.17051 -80.54896 20629 ft 408 kts 111°
2026-04-23 17:56 28.15054 -80.48830 21602 ft 417 kts 111°
2026-04-23 17:56 28.14015 -80.45695 22120 ft 421 kts 111°
2026-04-23 17:57 28.12996 -80.42622 22604 ft 425 kts 111°
2026-04-23 17:57 28.11949 -80.39469 23114 ft 429 kts 111°
2026-04-23 17:57 28.09827 -80.33087 24016 ft 436 kts 111°
2026-04-23 17:58 28.08751 -80.29861 24424 ft 439 kts 112°
2026-04-23 17:58 28.07663 -80.26609 24835 ft 442 kts 112°
2026-04-23 17:58 28.06568 -80.23345 25232 ft 445 kts 112°
2026-04-23 17:58 28.05461 -80.20047 25643 ft 449 kts 112°
2026-04-23 17:59 28.04347 -80.16730 26017 ft 452 kts 112°
2026-04-23 17:59 28.03227 -80.13397 26403 ft 455 kts 112°
2026-04-23 17:59 28.02112 -80.10079 26780 ft 457 kts 112°
2026-04-23 17:59 28.00973 -80.06695 26988 ft 465 kts 112°
2026-04-23 18:00 27.99807 -80.03235 27012 ft 476 kts 112°
2026-04-23 18:00 27.98613 -79.99695 27089 ft 485 kts 112°
2026-04-23 18:00 27.97401 -79.96105 27212 ft 493 kts 112°
2026-04-23 18:00 27.96169 -79.92454 27505 ft 496 kts 112°
2026-04-23 18:01 27.94937 -79.88809 27871 ft 497 kts 112°
2026-04-23 18:01 27.93700 -79.85151 28192 ft 499 kts 112°
2026-04-23 18:01 27.92471 -79.81519 28465 ft 501 kts 112°
2026-04-23 18:01 27.91216 -79.77819 28747 ft 504 kts 112°
2026-04-23 18:02 27.90367 -79.75316 28996 ft 504 kts 112°
2026-04-23 18:02 27.88703 -79.70416 29578 ft 503 kts 112°
2026-04-23 18:02 27.87449 -79.66727 30025 ft 502 kts 112°
2026-04-23 18:02 27.86194 -79.63040 30387 ft 502 kts 112°
2026-04-23 18:03 27.84939 -79.59357 30690 ft 502 kts 113°
2026-04-23 18:03 27.83684 -79.55681 31012 ft 502 kts 113°
2026-04-23 18:03 27.82441 -79.52040 31338 ft 502 kts 113°
2026-04-23 18:03 27.81184 -79.48362 31679 ft 502 kts 113°
2026-04-23 18:04 27.79923 -79.44677 31986 ft 502 kts 113°
2026-04-23 18:04 27.78663 -79.41000 32312 ft 502 kts 113°
2026-04-23 18:04 27.77405 -79.37330 32680 ft 500 kts 113°
2026-04-23 18:04 27.76149 -79.33670 33013 ft 500 kts 113°
2026-04-23 18:05 27.74891 -79.30009 33281 ft 501 kts 113°
2026-04-23 18:05 27.73627 -79.26333 33548 ft 502 kts 114°
2026-04-23 18:05 27.72361 -79.22657 33853 ft 501 kts 114°
2026-04-23 18:05 27.71101 -79.18999 34161 ft 501 kts 114°
2026-04-23 18:06 27.69836 -79.15331 34427 ft 500 kts 114°
2026-04-23 18:06 27.68575 -79.11679 34715 ft 499 kts 114°
2026-04-23 18:06 27.67316 -79.08034 35003 ft 498 kts 114°
2026-04-23 18:06 27.66077 -79.04452 35281 ft 497 kts 114°
2026-04-23 18:07 27.64818 -79.00817 35542 ft 496 kts 114°
2026-04-23 18:07 27.63567 -78.97206 35789 ft 495 kts 114°
2026-04-23 18:07 27.62310 -78.93585 36031 ft 495 kts 114°
2026-04-23 18:07 27.61054 -78.89969 36164 ft 497 kts 114°
2026-04-23 18:08 27.60216 -78.87559 36185 ft 500 kts 114°
2026-04-23 18:08 27.57224 -78.78969 36483 ft 504 kts 114°
2026-04-23 18:08 27.55937 -78.75277 36624 ft 506 kts 114°
2026-04-23 18:09 27.54646 -78.71576 36664 ft 510 kts 114°
2026-04-23 18:09 27.52046 -78.64139 36812 ft 515 kts 114°
2026-04-23 18:09 27.50733 -78.60385 37027 ft 514 kts 114°
2026-04-23 18:10 27.49417 -78.56629 37159 ft 515 kts 114°
2026-04-23 18:10 27.46785 -78.49128 37142 ft 514 kts 114°
2026-04-23 18:11 27.44158 -78.41654 37137 ft 511 kts 114°
2026-04-23 18:11 27.41538 -78.34220 37140 ft 509 kts 114°
2026-04-23 18:12 27.38930 -78.26831 37144 ft 507 kts 114°
2026-04-23 18:12 27.36322 -78.19455 37147 ft 507 kts 114°
2026-04-23 18:13 27.33596 -78.12153 37135 ft 505 kts 121°
2026-04-23 18:13 27.29848 -78.05583 37144 ft 502 kts 128°
2026-04-23 18:14 27.25900 -77.99089 37150 ft 504 kts 128°
2026-04-23 18:14 27.21976 -77.92537 37150 ft 506 kts 127°
2026-04-23 18:15 27.18073 -77.85941 37144 ft 508 kts 127°
2026-04-23 18:15 27.14156 -77.79316 37142 ft 510 kts 127°
2026-04-23 18:16 27.10221 -77.72678 37138 ft 510 kts 127°
2026-04-23 18:16 27.06281 -77.66046 37139 ft 511 kts 127°
2026-04-23 18:17 27.00365 -77.56102 37145 ft 510 kts 127°
2026-04-23 18:17 26.96465 -77.49443 37137 ft 511 kts 127°
2026-04-23 18:18 26.92615 -77.42811 37138 ft 510 kts 127°
2026-04-23 18:18 26.88733 -77.36141 37124 ft 509 kts 127°
2026-04-23 18:19 26.84855 -77.29501 37127 ft 509 kts 127°
2026-04-23 18:19 26.80979 -77.22883 37135 ft 508 kts 127°
2026-04-23 18:20 26.77100 -77.16270 37133 ft 508 kts 128°
2026-04-23 18:20 26.73216 -77.09657 37132 ft 508 kts 128°
2026-04-23 18:21 26.69356 -77.03092 37128 ft 508 kts 128°
2026-04-23 18:21 26.65467 -76.96490 37128 ft 508 kts 128°
2026-04-23 18:22 26.61568 -76.89880 37131 ft 508 kts 128°
2026-04-23 18:22 26.58329 -76.84396 37133 ft 508 kts 128°
2026-04-23 18:23 26.52476 -76.74504 37126 ft 509 kts 128°
2026-04-23 18:24 26.46632 -76.64649 37131 ft 510 kts 128°
2026-04-23 18:25 26.40732 -76.54720 37128 ft 512 kts 128°
2026-04-23 18:25 26.36781 -76.48082 37117 ft 514 kts 129°
2026-04-23 18:26 26.32821 -76.41439 37127 ft 515 kts 129°
2026-04-23 18:26 26.28850 -76.34789 37127 ft 516 kts 129°
2026-04-23 18:27 26.24866 -76.28126 37125 ft 516 kts 129°
2026-04-23 18:27 26.20910 -76.21518 37121 ft 516 kts 129°
2026-04-23 18:28 26.16923 -76.14867 37118 ft 516 kts 130°
2026-04-23 18:28 26.12921 -76.08204 37116 ft 518 kts 130°
2026-04-23 18:29 26.08907 -76.01533 37124 ft 519 kts 130°
2026-04-23 18:29 26.04882 -75.94851 37121 ft 520 kts 130°
2026-04-23 18:30 26.00849 -75.88163 37115 ft 521 kts 130°
2026-04-23 18:30 25.96806 -75.81469 37115 ft 521 kts 130°
2026-04-23 18:31 25.92754 -75.74768 37111 ft 522 kts 130°
2026-04-23 18:31 25.88699 -75.68075 37115 ft 522 kts 130°
2026-04-23 18:32 25.84663 -75.61422 37109 ft 522 kts 130°
2026-04-23 18:32 25.80602 -75.54737 37109 ft 522 kts 131°
2026-04-23 18:33 25.76531 -75.48047 37110 ft 523 kts 131°
2026-04-23 18:33 25.72452 -75.41352 37099 ft 524 kts 131°
2026-04-23 18:34 25.68366 -75.34655 37116 ft 525 kts 131°
2026-04-23 18:34 25.64270 -75.27953 37114 ft 525 kts 131°
2026-04-23 18:35 25.60170 -75.21251 37105 ft 526 kts 131°
2026-04-23 18:35 25.56062 -75.14546 37105 ft 526 kts 131°
2026-04-23 18:36 25.51951 -75.07847 37114 ft 526 kts 131°
2026-04-23 18:36 25.47870 -75.01205 37064 ft 526 kts 132°
2026-04-23 18:37 25.43753 -74.94515 37099 ft 525 kts 132°
2026-04-23 18:37 25.39644 -74.87847 37106 ft 525 kts 132°
2026-04-23 18:38 25.35514 -74.81155 37104 ft 526 kts 132°
2026-04-23 18:38 25.31386 -74.74475 37101 ft 526 kts 132°
2026-04-23 18:39 25.27255 -74.67801 37101 ft 526 kts 132°
2026-04-23 18:39 25.23115 -74.61120 37098 ft 526 kts 132°
2026-04-23 18:40 25.18979 -74.54455 37097 ft 526 kts 132°
2026-04-23 18:40 25.14842 -74.47799 37094 ft 526 kts 132°
2026-04-23 18:41 25.10724 -74.41182 37056 ft 526 kts 133°
2026-04-23 18:41 25.06583 -74.34537 37082 ft 525 kts 133°
2026-04-23 18:42 25.02444 -74.27905 37097 ft 525 kts 133°
2026-04-23 18:42 24.98298 -74.21273 37096 ft 525 kts 133°
2026-04-23 18:43 24.94147 -74.14639 37094 ft 526 kts 133°
2026-04-23 18:43 24.89990 -74.08006 37096 ft 526 kts 133°
2026-04-23 18:44 24.85833 -74.01381 37094 ft 526 kts 133°
2026-04-23 18:44 24.81672 -73.94760 37091 ft 526 kts 133°
2026-04-23 18:45 24.77535 -73.88185 37093 ft 526 kts 133°
2026-04-23 18:45 24.73366 -73.81568 37083 ft 525 kts 133°
2026-04-23 18:46 24.69204 -73.74970 37088 ft 525 kts 133°
2026-04-23 18:46 24.65045 -73.68386 37086 ft 524 kts 133°
2026-04-23 18:47 24.60884 -73.61808 37079 ft 524 kts 133°
2026-04-23 18:47 24.56726 -73.55244 37084 ft 523 kts 134°
2026-04-23 18:48 24.52479 -73.48762 37080 ft 521 kts 135°
2026-04-23 18:48 24.48157 -73.42352 37080 ft 521 kts 135°
2026-04-23 18:49 24.43870 -73.35991 37078 ft 521 kts 135°
2026-04-23 18:49 24.39573 -73.29585 37076 ft 521 kts 135°
2026-04-23 18:50 24.36003 -73.24256 37074 ft 521 kts 135°
2026-04-23 18:50 24.30984 -73.16773 37077 ft 521 kts 135°
2026-04-23 18:51 24.26677 -73.10363 37080 ft 521 kts 135°
2026-04-23 18:51 24.22403 -73.04013 37079 ft 521 kts 135°
2026-04-23 18:52 24.18095 -72.97620 37079 ft 521 kts 135°
2026-04-23 18:52 24.13786 -72.91232 37073 ft 522 kts 135°
2026-04-23 18:53 24.09472 -72.84846 37078 ft 522 kts 135°
2026-04-23 18:53 24.05154 -72.78463 37073 ft 522 kts 135°
2026-04-23 18:54 24.00830 -72.72079 37043 ft 522 kts 135°
2026-04-23 18:54 23.96511 -72.65708 37068 ft 521 kts 135°
2026-04-23 18:55 23.92184 -72.59336 37064 ft 521 kts 136°
2026-04-23 18:55 23.87856 -72.52971 37072 ft 521 kts 136°
2026-04-23 18:56 23.84258 -72.47685 37072 ft 521 kts 136°
2026-04-23 18:56 23.79228 -72.40305 37068 ft 521 kts 136°
2026-04-23 18:57 23.74893 -72.33954 37069 ft 521 kts 136°
2026-04-23 18:57 23.70560 -72.27611 37068 ft 521 kts 136°
2026-04-23 18:58 23.66220 -72.21269 37063 ft 521 kts 136°
2026-04-23 18:58 23.61885 -72.14940 37069 ft 521 kts 136°
2026-04-23 18:59 23.57548 -72.08617 37062 ft 521 kts 136°
2026-04-23 18:59 23.53206 -72.02295 37063 ft 521 kts 136°
2026-04-23 19:00 23.48864 -71.95979 37063 ft 521 kts 136°
2026-04-23 19:00 23.44542 -71.89700 37065 ft 521 kts 136°
2026-04-23 19:01 23.40193 -71.83390 37064 ft 521 kts 136°
2026-04-23 19:01 23.35843 -71.77084 37060 ft 521 kts 135°
2026-04-23 19:02 23.32304 -71.71689 37060 ft 524 kts 133°
2026-04-23 19:02 23.27520 -71.64071 37020 ft 525 kts 133°
2026-04-23 19:03 23.23403 -71.57529 37049 ft 523 kts 133°
2026-04-23 19:03 23.19264 -71.51025 37057 ft 523 kts 133°
2026-04-23 19:04 23.15110 -71.44533 37060 ft 523 kts 133°
2026-04-23 19:04 23.10952 -71.38044 37052 ft 523 kts 133°
2026-04-23 19:05 23.06794 -71.31560 37048 ft 523 kts 133°
2026-04-23 19:05 23.02637 -71.25082 37050 ft 523 kts 133°
2026-04-23 19:06 22.98477 -71.18608 37055 ft 523 kts 133°
2026-04-23 19:06 22.94309 -71.12130 37047 ft 523 kts 134°
2026-04-23 19:07 22.90164 -71.05695 37013 ft 523 kts 133°
2026-04-23 19:07 22.86004 -70.99243 37040 ft 522 kts 133°
2026-04-23 19:08 22.81837 -70.92791 37038 ft 521 kts 133°
2026-04-23 19:08 22.77676 -70.86356 37043 ft 521 kts 133°
2026-04-23 19:09 22.73517 -70.79933 37046 ft 521 kts 133°
2026-04-23 19:09 22.69385 -70.73557 37047 ft 520 kts 133°
2026-04-23 19:10 22.65221 -70.67141 37045 ft 520 kts 133°
2026-04-23 19:10 22.61756 -70.61808 37040 ft 520 kts 133°
2026-04-23 19:11 22.57563 -70.55362 37037 ft 520 kts 133°
2026-04-23 19:11 22.53420 -70.49000 37041 ft 520 kts 133°
2026-04-23 19:12 22.49251 -70.42602 37032 ft 519 kts 133°
2026-04-23 19:12 22.45093 -70.36233 37028 ft 518 kts 133°
2026-04-23 19:13 22.40934 -70.29869 37042 ft 517 kts 133°
2026-04-23 19:13 22.36804 -70.23558 37030 ft 517 kts 133°
2026-04-23 19:14 22.32651 -70.17220 37019 ft 516 kts 133°
2026-04-23 19:14 22.28498 -70.10888 37032 ft 516 kts 133°
2026-04-23 19:15 22.24319 -70.04523 37032 ft 516 kts 133°
2026-04-23 19:15 22.20197 -69.98255 37026 ft 516 kts 133°
2026-04-23 19:16 22.16039 -69.91937 37022 ft 516 kts 133°
2026-04-23 19:16 22.11883 -69.85630 37023 ft 515 kts 133°
2026-04-23 19:17 22.05652 -69.76188 37032 ft 515 kts 133°
2026-04-23 19:17 22.01493 -69.69896 37034 ft 515 kts 133°
2026-04-23 19:18 21.97360 -69.63650 37031 ft 515 kts 133°
2026-04-23 19:18 21.93197 -69.57367 37033 ft 515 kts 133°
2026-04-23 19:19 21.86956 -69.47959 37024 ft 515 kts 133°
2026-04-23 19:20 21.80696 -69.38539 37023 ft 515 kts 133°
2026-04-23 19:20 21.76524 -69.32270 37026 ft 515 kts 133°
2026-04-23 19:21 21.70287 -69.22911 37019 ft 515 kts 133°
2026-04-23 19:22 21.66110 -69.16653 37020 ft 515 kts 133°
2026-04-23 19:22 21.59828 -69.07254 37018 ft 515 kts 133°
2026-04-23 19:23 21.55639 -69.00997 37017 ft 516 kts 133°
2026-04-23 19:24 21.49351 -68.91614 37016 ft 516 kts 133°
2026-04-23 19:24 21.43061 -68.82246 37015 ft 516 kts 133°
2026-04-23 19:25 21.34663 -68.69762 37007 ft 515 kts 133°
2026-04-23 19:26 21.28391 -68.60457 37009 ft 515 kts 133°
2026-04-23 19:27 21.17887 -68.44909 37015 ft 515 kts 133°
2026-04-23 19:28 21.09471 -68.32482 37010 ft 515 kts 133°
2026-04-23 19:29 21.03192 -68.23227 37011 ft 514 kts 133°
2026-04-23 19:30 20.96880 -68.13939 37005 ft 514 kts 133°
2026-04-23 19:31 20.90572 -68.04671 37014 ft 513 kts 133°
2026-04-23 19:31 20.86362 -67.98494 37006 ft 513 kts 133°
2026-04-23 19:32 20.82083 -67.92474 36999 ft 511 kts 135°
2026-04-23 19:32 20.77672 -67.86498 37000 ft 511 kts 135°
2026-04-23 19:33 20.73282 -67.80532 37002 ft 511 kts 135°
2026-04-23 19:33 20.66716 -67.71543 36999 ft 511 kts 135°
2026-04-23 19:34 20.62341 -67.65552 37003 ft 511 kts 135°
2026-04-23 19:35 20.55790 -67.56597 36993 ft 510 kts 135°
2026-04-23 19:35 20.51423 -67.50638 36994 ft 509 kts 135°
2026-04-23 19:36 20.47059 -67.44688 36997 ft 509 kts 135°
2026-04-23 19:36 20.42718 -67.38774 36996 ft 509 kts 135°
2026-04-23 19:37 20.38351 -67.32832 37001 ft 509 kts 135°
2026-04-23 19:37 20.33981 -67.26894 36994 ft 509 kts 135°
2026-04-23 19:38 20.29606 -67.20952 36995 ft 509 kts 135°
2026-04-23 19:38 20.25232 -67.15015 36993 ft 510 kts 135°
2026-04-23 19:39 20.20850 -67.09072 37000 ft 509 kts 135°
2026-04-23 19:39 20.16476 -67.03147 36994 ft 508 kts 135°
2026-04-23 19:40 20.12109 -66.97237 36993 ft 508 kts 135°
2026-04-23 19:40 20.07773 -66.91376 36989 ft 507 kts 135°
2026-04-23 19:41 20.03412 -66.85484 36984 ft 507 kts 135°
2026-04-23 19:41 19.99061 -66.79519 36985 ft 510 kts 131°
2026-04-23 19:42 19.95539 -66.72897 36991 ft 517 kts 123°
2026-04-23 19:42 19.92265 -66.66092 36988 ft 517 kts 123°
2026-04-23 19:43 19.88972 -66.59340 36990 ft 517 kts 123°
2026-04-23 19:43 19.85612 -66.52592 36987 ft 518 kts 124°
2026-04-23 19:44 19.82221 -66.45838 36987 ft 518 kts 124°
2026-04-23 19:44 19.78828 -66.39088 36989 ft 518 kts 124°
2026-04-23 19:45 19.75430 -66.32327 36985 ft 518 kts 124°
2026-04-23 19:45 19.72035 -66.25575 36977 ft 519 kts 124°
2026-04-23 19:46 19.68637 -66.18824 36972 ft 514 kts 124°
2026-04-23 19:46 19.65332 -66.12249 36981 ft 501 kts 124°
2026-04-23 19:47 19.62605 -66.06848 36980 ft 498 kts 124°
2026-04-23 19:47 19.58802 -65.99330 36987 ft 496 kts 124°
2026-04-23 19:48 19.55517 -65.92845 36648 ft 505 kts 124°
2026-04-23 19:48 19.53842 -65.89543 36412 ft 510 kts 124°
2026-04-23 19:48 19.52161 -65.86225 36184 ft 510 kts 124°
2026-04-23 19:48 19.50489 -65.82919 35927 ft 508 kts 124°
2026-04-23 19:49 19.48822 -65.79626 35685 ft 506 kts 124°
2026-04-23 19:49 19.47160 -65.76345 35448 ft 505 kts 123°
2026-04-23 19:49 19.45500 -65.73073 35216 ft 504 kts 123°
2026-04-23 19:49 19.43840 -65.69805 34983 ft 504 kts 123°
2026-04-23 19:50 19.42164 -65.66512 34772 ft 511 kts 123°
2026-04-23 19:50 19.40466 -65.63179 34558 ft 517 kts 123°
2026-04-23 19:50 19.38752 -65.59812 34306 ft 520 kts 123°
2026-04-23 19:50 19.37041 -65.56446 34076 ft 519 kts 123°
2026-04-23 19:51 19.35327 -65.53074 33840 ft 520 kts 123°
2026-04-23 19:51 19.33605 -65.49694 33590 ft 523 kts 123°
2026-04-23 19:51 19.31877 -65.46304 33338 ft 524 kts 123°
2026-04-23 19:51 19.30142 -65.42902 33083 ft 524 kts 123°
2026-04-23 19:52 19.28992 -65.40650 32917 ft 525 kts 123°
2026-04-23 19:52 19.26669 -65.36105 32580 ft 525 kts 123°
2026-04-23 19:52 19.24931 -65.32705 32340 ft 525 kts 123°
2026-04-23 19:52 19.23196 -65.29315 32095 ft 524 kts 123°
2026-04-23 19:53 19.21459 -65.25920 31843 ft 524 kts 122°
2026-04-23 19:53 19.19749 -65.22579 31605 ft 524 kts 122°
2026-04-23 19:53 19.18023 -65.19206 31348 ft 518 kts 122°
2026-04-23 19:53 19.16316 -65.15872 30993 ft 513 kts 122°
2026-04-23 19:54 19.14622 -65.12567 30609 ft 511 kts 122°
2026-04-23 19:54 19.12923 -65.09256 30360 ft 511 kts 122°
2026-04-23 19:54 19.11218 -65.05938 30141 ft 514 kts 122°
2026-04-23 19:54 19.09512 -65.02620 29890 ft 514 kts 122°
2026-04-23 19:55 19.07803 -64.99295 29615 ft 513 kts 122°
2026-04-23 19:55 19.06098 -64.95979 29356 ft 512 kts 122°
2026-04-23 19:55 19.04968 -64.93782 29184 ft 512 kts 122°
2026-04-23 19:55 19.03268 -64.90479 28924 ft 511 kts 122°
2026-04-23 19:56 19.01017 -64.86107 28419 ft 511 kts 122°
2026-04-23 19:56 18.99336 -64.82842 27976 ft 502 kts 122°
2026-04-23 19:56 18.98215 -64.80665 27685 ft 496 kts 122°
2026-04-23 19:56 18.96598 -64.77525 27252 ft 488 kts 122°
2026-04-23 19:57 18.94986 -64.74399 26839 ft 480 kts 122°
2026-04-23 19:57 18.93397 -64.71320 26420 ft 473 kts 122°
2026-04-23 19:57 18.91832 -64.68290 26026 ft 467 kts 121°
2026-04-23 19:57 18.90284 -64.65297 25629 ft 461 kts 121°
2026-04-23 19:58 18.88756 -64.62342 25235 ft 456 kts 121°
2026-04-23 19:58 18.87244 -64.59421 24815 ft 451 kts 121°
2026-04-23 19:58 18.85747 -64.56530 24414 ft 446 kts 121°
2026-04-23 19:58 18.84264 -64.53667 24014 ft 442 kts 121°
2026-04-23 19:59 18.82792 -64.50826 23617 ft 438 kts 121°
2026-04-23 19:59 18.81334 -64.48014 23168 ft 434 kts 121°
2026-04-23 19:59 18.79896 -64.45241 22752 ft 429 kts 121°
2026-04-23 19:59 18.78467 -64.42487 22368 ft 425 kts 121°
2026-04-23 20:00 18.77055 -64.39767 21969 ft 421 kts 121°
2026-04-23 20:00 18.75668 -64.37095 21596 ft 418 kts 121°
2026-04-23 20:00 18.74278 -64.34420 21222 ft 414 kts 121°
2026-04-23 20:00 18.72896 -64.31762 20846 ft 411 kts 121°
2026-04-23 20:01 18.71527 -64.29129 20480 ft 407 kts 121°
2026-04-23 20:01 18.70168 -64.26517 20104 ft 405 kts 121°
2026-04-23 20:01 18.68820 -64.23926 19741 ft 402 kts 121°
2026-04-23 20:01 18.67474 -64.21341 19371 ft 399 kts 121°
2026-04-23 20:02 18.66142 -64.18784 18991 ft 397 kts 120°
2026-04-23 20:02 18.64818 -64.16243 18634 ft 394 kts 120°
2026-04-23 20:02 18.63503 -64.13721 18256 ft 392 kts 120°
2026-04-23 20:02 18.62195 -64.11211 17841 ft 389 kts 120°
2026-04-23 20:03 18.60898 -64.08725 17449 ft 385 kts 120°
2026-04-23 20:03 18.59610 -64.06256 17075 ft 382 kts 120°
2026-04-23 20:03 18.58353 -64.03849 16710 ft 378 kts 120°
2026-04-23 20:03 18.57088 -64.01426 16356 ft 375 kts 120°
2026-04-23 20:04 18.55835 -63.99029 15992 ft 372 kts 120°
2026-04-23 20:04 18.54590 -63.96645 15635 ft 369 kts 120°
2026-04-23 20:04 18.53353 -63.94281 15283 ft 367 kts 120°
2026-04-23 20:04 18.52125 -63.91932 14930 ft 365 kts 120°
2026-04-23 20:05 18.50899 -63.89590 14567 ft 364 kts 120°
2026-04-23 20:05 18.49682 -63.87265 14200 ft 361 kts 120°
2026-04-23 20:05 18.48474 -63.84959 13848 ft 358 kts 120°
2026-04-23 20:05 18.47275 -63.82669 13453 ft 356 kts 120°
2026-04-23 20:06 18.46084 -63.80396 13080 ft 352 kts 120°
2026-04-23 20:06 18.44906 -63.78149 12733 ft 348 kts 120°
2026-04-23 20:06 18.43741 -63.75926 12385 ft 345 kts 120°
2026-04-23 20:06 18.42588 -63.73728 12048 ft 341 kts 120°
2026-04-23 20:07 18.41447 -63.71553 11717 ft 338 kts 120°
2026-04-23 20:07 18.40316 -63.69400 11378 ft 334 kts 120°
2026-04-23 20:07 18.39188 -63.67266 11057 ft 331 kts 121°
2026-04-23 20:07 18.37792 -63.65406 10692 ft 327 kts 136°
2026-04-23 20:08 18.36145 -63.63771 10345 ft 323 kts 138°
2026-04-23 20:08 18.34510 -63.62195 9998 ft 313 kts 138°
2026-04-23 20:08 18.32929 -63.60669 9764 ft 303 kts 137°
2026-04-23 20:08 18.31393 -63.59175 9505 ft 299 kts 137°
2026-04-23 20:09 18.29883 -63.57696 9249 ft 295 kts 137°
2026-04-23 20:09 18.28396 -63.56231 8988 ft 291 kts 137°
2026-04-23 20:09 18.26928 -63.54780 8744 ft 288 kts 137°
2026-04-23 20:09 18.25490 -63.53356 8481 ft 280 kts 137°
2026-04-23 20:10 18.24556 -63.52430 8307 ft 275 kts 137°
2026-04-23 20:10 18.22731 -63.50620 7975 ft 265 kts 137°
2026-04-23 20:10 18.21410 -63.49309 7730 ft 258 kts 137°
2026-04-23 20:10 18.20118 -63.48026 7472 ft 253 kts 136°
2026-04-23 20:11 18.18849 -63.46766 7188 ft 249 kts 136°
2026-04-23 20:11 18.17596 -63.45523 6901 ft 246 kts 136°
2026-04-23 20:11 18.16354 -63.44290 6615 ft 244 kts 136°
2026-04-23 20:11 18.15144 -63.43090 6364 ft 238 kts 136°
2026-04-23 20:12 18.13966 -63.41921 6096 ft 229 kts 136°
2026-04-23 20:12 18.12829 -63.40794 5801 ft 220 kts 136°
2026-04-23 20:12 18.11737 -63.39711 5498 ft 211 kts 136°
2026-04-23 20:12 18.10684 -63.38666 5184 ft 205 kts 136°
2026-04-23 20:13 18.09661 -63.37652 4887 ft 199 kts 136°
2026-04-23 20:13 18.08656 -63.36655 4460 ft 202 kts 136°
2026-04-23 20:13 18.07633 -63.35640 4066 ft 201 kts 136°
2026-04-23 20:13 18.06630 -63.34647 3788 ft 194 kts 135°
2026-04-23 20:14 18.05660 -63.33686 3556 ft 189 kts 135°
2026-04-23 20:14 18.04713 -63.32748 3343 ft 184 kts 134°
2026-04-23 20:14 18.03790 -63.31834 3131 ft 181 kts 134°
2026-04-23 20:14 18.02873 -63.30927 2931 ft 180 kts 134°
2026-04-23 20:15 18.01983 -63.30034 2731 ft 179 kts 130°
2026-04-23 20:15 18.01533 -63.28881 2558 ft 170 kts 84°
2026-04-23 20:15 18.01702 -63.27688 2486 ft 166 kts 80°
2026-04-23 20:15 18.01869 -63.26486 2349 ft 166 kts 80°
2026-04-23 20:16 18.02037 -63.25295 2229 ft 160 kts 80°
2026-04-23 20:16 18.02196 -63.24171 2095 ft 153 kts 80°
2026-04-23 20:16 18.02352 -63.23075 1974 ft 151 kts 79°
2026-04-23 20:16 18.02509 -63.21988 1863 ft 151 kts 80°
2026-04-23 20:17 18.02665 -63.20898 1726 ft 153 kts 80°
2026-04-23 20:17 18.02823 -63.19790 1533 ft 153 kts 80°
2026-04-23 20:17 18.02979 -63.18696 1337 ft 149 kts 80°
2026-04-23 20:17 18.03130 -63.17627 1143 ft 146 kts 79°
2026-04-23 20:18 18.03281 -63.16576 941 ft 145 kts 80°
2026-04-23 20:18 18.03430 -63.15536 786 ft 141 kts 81°
2026-04-23 20:18 18.03575 -63.14504 561 ft 146 kts 79°
2026-04-23 20:18 18.03716 -63.13447 393 ft 146 kts 78°
2026-04-23 20:19 18.03881 -63.12385 157 ft 149 kts 78°
2026-04-23 20:19 18.04026 -63.11313 29 ft 141 kts 75°
2026-04-23 20:19 18.04145 -63.10504 27 ft 63 kts 82°
2026-04-23 20:19 18.04188 -63.10204 26 ft 28 kts 81°
2026-04-23 20:20 18.04192 -63.10060 26 ft 14 kts 105°
2026-04-23 20:20 18.04207 -63.09996 29 ft 8 kts
2026-04-23 20:20 18.04218 -63.10042 26 ft 8 kts 256°
2026-04-23 20:20 18.04204 -63.10102 32 ft 9 kts 257°
2026-04-23 20:21 18.04194 -63.10164 26 ft 8 kts 261°
2026-04-23 20:21 18.04185 -63.10225 28 ft 9 kts 262°
2026-04-23 20:21 18.04175 -63.10305 28 ft 13 kts 263°
2026-04-23 20:21 18.04161 -63.10414 27 ft 17 kts 262°
2026-04-23 20:22 18.04142 -63.10553 27 ft 21 kts 261°
2026-04-23 20:22 18.04117 -63.10716 26 ft 24 kts 262°
2026-04-23 20:22 18.04091 -63.10898 26 ft 25 kts 262°
2026-04-23 20:22 18.04073 -63.11031 27 ft 17 kts 262°
2026-04-23 20:23 18.04071 -63.11136 27 ft 13 kts 297°
2026-04-23 20:23 18.04138 -63.11172 27 ft 9 kts 324°
2026-04-23 20:23 18.04143 -63.11233 27 ft 9 kts 256°
2026-04-23 20:23 18.04143 -63.11295 27 ft 9 kts 307°
2026-04-23 20:24 18.04194 -63.11308 28 ft 6 kts 352°
2026-04-23 20:24 18.04238 -63.11307 28 ft 6 kts 19°
2026-04-23 20:24 18.04268 -63.11275 28 ft 6 kts 56°
2026-04-23 20:24 18.04291 -63.11237 28 ft 6 kts 58°
2026-04-23 20:25 18.04304 -63.11222 28 ft 2 kts 28°
2026-04-23 20:25 18.04316 -63.11219 28 ft 2 kts
2026-04-23 20:25 18.04331 -63.11223 28 ft 2 kts 346°
2026-04-23 20:25 18.04348 -63.11227 28 ft 3 kts 348°
2026-04-23 20:26 18.04349 -63.11227 28 ft 0 kts 348°